This is the latest recevied weather packets stored in our database for station/object N7WGJ. If no packets are shown the sender has not sent any weather packets the latest 1 day(s).
| Time | Temp. | Humidity | Pressure | Rain* | Wind** | Luminosity | Snow |
|---|---|---|---|---|---|---|---|
| 1778072515 | 11.11° C | 94% | 1019.5 hPa | 0 mm | - | - | - |
| 1778068289 | 11.11° C | 93% | 1019 hPa | 0 mm | - | - | - |
| 1778062294 | 11.67° C | 92% | 1018.5 hPa | 0 mm | - | - | - |
| 1778061104 | 11.67° C | 91% | 1018.3 hPa | 0 mm | - | - | - |
| 1778060486 | 11.67° C | 91% | 1018.2 hPa | 0 mm | - | - | - |
| 1778059290 | 11.11° C | 92% | 1018.1 hPa | 0 mm | - | - | - |
| 1778058105 | 11.11° C | 92% | 1018.1 hPa | 0 mm | - | - | - |
| 1778057499 | 11.11° C | 92% | 1018.1 hPa | 0 mm | - | - | - |
| 1778056903 | 11.11° C | 92% | 1018 hPa | 0 mm | - | - | - |
| 1778054510 | 11.11° C | 91% | 1017.8 hPa | 0 mm | - | - | - |
| 1778053899 | 11.11° C | 90% | 1017.8 hPa | 0 mm | - | - | - |
| 1778053296 | 11.67° C | 90% | 1017.7 hPa | 0 mm | - | - | - |
| 1778052094 | 11.67° C | 90% | 1017.4 hPa | 0 mm | - | - | - |
| 1778051494 | 11.67° C | 90% | 1017.3 hPa | 0 mm | - | - | - |
| 1778049698 | 12.22° C | 88% | 1017.2 hPa | 0 mm | - | - | - |
| 1778047898 | 12.78° C | 87% | 1016.8 hPa | 0 mm | - | - | - |
| 1778046696 | 12.78° C | 87% | 1016.6 hPa | 0 mm | - | - | - |
| 1778044901 | 13.33° C | 85% | 1016.5 hPa | 0 mm | - | - | - |
| 1778044305 | 13.33° C | 85% | 1016.4 hPa | 0 mm | - | - | - |
| 1778043705 | 13.89° C | 84% | 1016.3 hPa | 0 mm | - | - | - |
| 1778043087 | 13.89° C | 84% | 1016.3 hPa | 0 mm | - | - | - |
| 1778042489 | 14.44° C | 83% | 1016.3 hPa | 0 mm | - | - | - |
| 1778041892 | 14.44° C | 83% | 1016.2 hPa | 0 mm | - | - | - |
| 1778041296 | 14.44° C | 83% | 1016.1 hPa | 0 mm | - | - | - |
| 1778040695 | 15° C | 83% | 1016.1 hPa | 0 mm | - | - | - |
* Rain latest hour (hover to see other rain measurements)
** Current wind speed in m/s (hover to see current wind gust speed)